Regional Weather Roundup
Issued by NWS

Home | Current Version | Previous Version | Graphics & Text | Print | Product List | Glossary On
Versions: 1 2 3 4 5 6 7 8 9 10 11 12 13 14 15 16 17 18 19 20 21 22 23 24 25 26 27 28 29 30 31 32 33 34 35 36 37 38 39 40 41 42 43 44 45 46 47 48 49 50
000
ASUS45 KCYS 290910
RWRWY

WYOMING REGIONAL WEATHER ROUNDUP
NATIONAL WEATHER SERVICE CHEYENNE WY
300 AM MDT FRI MAY 29 2015

NOTE:  "FAIR" INDICATES FEW OR NO CLOUDS BELOW 12,000 FEET
WITH NO SIGNIFICANT WEATHER AND/OR OBSTRUCTIONS TO VISIBILITY.

WYZ001-291000-
YELLOWSTONE NATIONAL PARK

CITY           SKY/WX    TMP DP  RH WIND       PRES   REMARKS
LK YELLOWSTONE   N/A     32  31  96 NW3       30.33R
W YELLOWSTONE  NOT AVBL

$$
WYZ002>013-054>058-071-098>099-291000-
NORTHERN WYOMING

CITY           SKY/WX    TMP DP  RH WIND       PRES   REMARKS
JACKSON        FAIR      37  37 100 CALM      30.27S
CODY           CLOUDY    48  45  87 N7        30.25R
GREYBULL       LGT RAIN  53  50  89 NW12      30.18R
WORLAND        CLOUDY    52  48  86 N8        30.19R
SHERIDAN       RAIN      51  49  92 W10       30.20S
BUFFALO        LGT RAIN  49  46  90 NW18G29   30.20R
GILLETTE       CLOUDY    51  49  92 N12       30.14R
HULETT         LGT RAIN  52  50  93 N7        30.13S
NEWCASTLE      FAIR      52  48  87 NW10      30.09R

$$
WYZ014>020-022>026-101>103-291000-
CENTRAL WYOMING

CITY           SKY/WX    TMP DP  RH WIND       PRES   REMARKS
BIG PINEY      FAIR      37  34  89 S3        30.26R
PINEDALE       FAIR      34  34 100 CALM      30.27S
DUBOIS         FAIR      37  36  93 NW7       30.26S WCI  32
LANDER         CLOUDY    47  44  90 S3        30.22S
RIVERTON       LGT RAIN  48  45  89 SW6       30.23S
CASPER         LGT RAIN  46  44  93 NW10      30.19S
DOUGLAS        CLOUDY    52  47  83 NW9       30.15S

$$
WYZ021-027>030-104>119-291000-
SOUTHERN WYOMING

CITY           SKY/WX    TMP DP  RH WIND       PRES   REMARKS
EVANSTON       FAIR      39  34  82 CALM      30.26S
KEMMERER       FAIR      37  36  93 NW3       30.28R
FORT BRIDGER   MOSUNNY   43  39  87 W7        30.29S
ROCK SPRINGS   FAIR      43  36  76 CALM      30.26R
DIXON          CLOUDY    45  42  89 SE3       30.27R
RAWLINS        CLOUDY    43  39  86 W7        30.23S
SARATOGA       CLOUDY    43  39  87 CALM      30.24S
LARAMIE        CLOUDY    44  38  79 E6        30.20F
CHEYENNE       CLOUDY    48  41  76 W7        30.16S
TORRINGTON     FAIR      52  49  89 NW12      30.07F
PINE BLUFFS    FAIR      45  43  93 NW7       30.12F

$$


USA.gov is the U.S. government's official web portal to all federal, state and local government web resources and services.